EW8543 Weather Reports


time (UTC)temp
C
wind
direction
speed
KPH
gust
KPH
rain 1hr
cm
rain 24hr
cm
rain mn
cm
humidity
%
barometer
mb
20260506014039 10 340 6.4 14.5 0.00 0.00 0.00 82 1009.8
20260506013528 10 9 4.8 14.5 0.00 0.00 0.00 81 1009.8
20260506013036 10 13 4.8 19.3 0.00 0.00 0.00 81 1009.8
20260506012525 10 9 6.4 19.3 0.00 0.00 0.00 80 1009.8
20260506012048 10 327 4.8 19.3 0.00 0.00 0.00 80 1009.8
20260506011536 10 348 6.4 17.7 0.00 0.00 0.00 80 1009.7
20260506011024 10 351 8.0 17.7 0.00 0.00 0.00 80 1009.7
20260506010533 10 5 4.8 17.7 0.00 0.00 0.00 79 1009.7
20260506010036 10 38 8.0 17.7 0.00 0.00 0.00 79 1009.8
20260506005521 10 338 4.8 12.9 0.00 0.00 0.00 79 1009.9
20260506005049 10 9 6.4 19.3 0.00 0.00 0.00 80 1009.9
20260506004537 10 26 9.7 19.3 0.00 0.00 0.00 80 1009.9
20260506004025 10 355 4.8 16.1 0.00 0.00 0.00 80 1010.0
20260506003550 10 22 6.4 16.1 0.00 0.00 0.00 79 1010.0
20260506003100 10 13 8.0 16.1 0.00 0.00 0.00 79 1010.1
20260506002529 10 9 6.4 20.9 0.00 0.00 0.00 79 1010.1
20260506002101 10 10 9.7 20.9 0.00 0.00 0.00 79 1010.2
20260506001524 10 31 8.0 16.1 0.00 0.00 0.00 80 1010.2
20260506001057 10 5 4.8 16.1 0.00 0.00 0.00 80 1010.3
20260506000526 10 17 6.4 17.7 0.00 0.00 0.00 80 1010.3
20260506000029 10 11 8.0 19.3 0.00 0.00 0.00 80 1010.4
20260505235538 10 339 6.4 20.9 0.00 0.00 0.00 79 1010.4
20260505235042 10 19 6.4 20.9 0.00 0.00 0.00 79 1010.4
20260505234530 9 360 4.8 17.7 0.00 0.00 0.00 79 1010.4
20260505234039 9 331 8.0 17.7 0.00 0.00 0.00 79 1010.5
20260505233529 9 348 4.8 16.1 0.00 0.00 0.00 79 1010.5
20260505233033 9 355 6.4 16.1 0.00 0.00 0.00 79 1010.5
20260505232522 9 345 8.0 19.3 0.00 0.00 0.00 78 1010.6
20260505232031 9 338 6.4 19.3 0.00 0.00 0.00 78 1010.6
20260505231520 9 344 4.8 14.5 0.00 0.00 0.00 78 1010.6
20260505231028 10 340 8.0 17.7 0.00 0.00 0.00 78 1010.7
20260505230533 10 44 4.8 17.7 0.00 0.00 0.00 78 1010.6
20260505230059 10 339 8.0 17.7 0.00 0.00 0.00 78 1010.7
20260505225547 10 5 4.8 22.5 0.00 0.00 0.00 78 1010.7
20260505225034 10 355 8.0 22.5 0.00 0.00 0.00 78 1010.7
20260505224523 10 24 4.8 17.7 0.00 0.00 0.00 77 1010.7
20260505224027 10 360 6.4 17.7 0.00 0.00 0.00 78 1010.7
20260505223535 10 11 6.4 16.1 0.00 0.00 0.00 77 1010.7
20260505223025 10 344 6.4 22.5 0.00 0.00 0.00 77 1010.8
20260505222533 10 339 4.8 22.5 0.00 0.00 0.00 77 1010.8
20260505222023 10 350 6.4 19.3 0.00 0.00 0.00 77 1010.8
20260505221528 10 355 3.2 19.3 0.00 0.00 0.00 77 1010.9
20260505221034 10 5 4.8 16.1 0.00 0.00 0.00 77 1010.9
20260505220524 10 5 4.8 16.1 0.00 0.00 0.00 76 1010.9
20260505220024 10 14 6.4 19.3 0.00 0.00 0.00 76 1011.0
20260505215549 10 5 8.0 19.3 0.00 0.00 0.00 76 1011.0
20260505215033 10 55 6.4 19.3 0.00 0.00 0.00 76 1011.0
20260505214521 10 32 9.7 19.3 0.00 0.00 0.00 76 1011.0
20260505214030 10 59 6.4 16.1 0.00 0.00 0.00 76 1011.1
20260505213539 10 55 4.8 16.1 0.00 0.00 0.00 76 1011.0
20260505213023 10 19 6.4 20.9 0.00 0.00 0.00 76 1011.0
20260505212532 10 9 8.0 20.9 0.00 0.00 0.00 75 1011.1
20260505212039 10 36 8.0 19.3 0.00 0.00 0.00 75 1011.1
20260505211528 10 360 8.0 19.3 0.00 0.00 0.00 75 1011.1
20260505211037 10 32 6.4 14.5 0.00 0.00 0.00 76 1011.1
20260505210522 10 360 4.8 17.7 0.00 0.00 0.00 75 1011.1
20260505210046 10 9 8.0 17.7 0.00 0.00 0.00 75 1011.2
20260505205558 10 25 6.4 16.1 0.00 0.00 0.00 75 1011.2
20260505205046 10 360 6.4 20.9 0.00 0.00 0.00 76 1011.2
20260505204551 10 14 4.8 20.9 0.00 0.00 0.00 76 1011.2
20260505204019 10 40 8.0 22.5 0.00 0.00 0.00 75 1011.2
20260505203528 10 311 9.7 19.3 0.00 0.00 0.00 75 1011.1
20260505203037 11 16 4.8 16.1 0.00 0.00 0.00 75 1011.1
20260505202541 11 355 6.4 16.1 0.00 0.00 0.00 75 1011.1
20260505202028 11 53 4.8 14.5 0.00 0.00 0.00 75 1011.1
20260505201537 11 44 8.0 14.5 0.00 0.00 0.00 76 1011.1
20260505201045 11 5 4.8 20.9 0.00 0.00 0.00 77 1011.0
20260505200549 11 338 6.4 20.9 0.00 0.00 0.00 77 1011.0
20260505200029 11 360 11.3 20.9 0.00 0.00 0.00 77 1011.0
20260505195519 11 325 8.0 17.7 0.00 0.00 0.00 77 1010.9
20260505195028 11 9 6.4 20.9 0.00 0.00 0.00 76 1010.8
20260505194533 11 9 6.4 20.9 0.00 0.00 0.00 77 1010.8
20260505194043 11 5 9.7 20.9 0.00 0.00 0.00 76 1010.8
20260505193531 11 338 6.4 20.9 0.00 0.00 0.00 76 1010.7
20260505193019 11 341 6.4 25.7 0.00 0.00 0.00 76 1010.6
20260505192526 11 348 6.4 25.7 0.00 0.00 0.00 76 1010.6
20260505192028 11 348 6.4 20.9 0.00 0.00 0.00 76 1010.6
20260505191556 11 5 9.7 19.3 0.00 0.00 0.00 76 1010.5
20260505191020 11 5 9.7 19.3 0.00 0.00 0.00 77 1010.5
20260505190548 11 337 8.0 22.5 0.00 0.00 0.00 77 1010.4
20260505190023 11 13 12.9 25.7 0.00 0.00 0.00 77 1010.4
20260505185531 12 27 11.3 25.7 0.00 0.00 0.00 77 1010.3
20260505185037 12 9 9.7 19.3 0.00 0.00 0.00 77 1010.3
20260505184524 12 47 8.0 27.4 0.00 0.00 0.00 76 1010.3
20260505184029 12 351 12.9 27.4 0.00 0.00 0.00 76 1010.2
20260505183536 12 360 9.7 25.7 0.00 0.00 0.00 76 1010.2
20260505183044 12 55 9.7 22.5 0.00 0.00 0.00 76 1010.3
20260505182533 12 311 9.7 22.5 0.00 0.00 0.00 76 1010.1
20260505182038 12 45 12.9 24.1 0.00 0.00 0.00 75 1010.1
20260505181520 12 28 16.1 24.1 0.00 0.00 0.00 75 1010.1
20260505181027 12 5 12.9 30.6 0.00 0.00 0.00 75 1010.2
20260505180534 12 17 12.9 30.6 0.00 0.00 0.00 75 1010.1
20260505180059 12 13 16.1 30.6 0.00 0.00 0.00 74 1010.2
20260505175544 12 61 12.9 27.4 0.00 0.00 0.00 74 1010.2
20260505175047 12 5 14.5 27.4 0.00 0.00 0.00 74 1010.2
20260505174535 12 15 17.7 27.4 0.00 0.00 0.00 73 1010.1
20260505174022 12 360 12.9 27.4 0.00 0.00 0.00 73 1010.2
20260505173526 13 348 11.3 30.6 0.00 0.00 0.00 74 1010.2
20260505173056 12 22 16.1 32.2 0.00 0.00 0.00 74 1010.2
20260505172523 12 347 16.1 32.2 0.00 0.00 0.00 73 1010.2
20260505172028 13 15 16.1 30.6 0.00 0.00 0.00 73 1010.2
20260505171535 13 355 12.9 25.7 0.00 0.00 0.00 73 1010.3
20260505171020 13 13 12.9 30.6 0.00 0.00 0.00 73 1010.3
20260505170549 13 11 9.7 30.6 0.00 0.00 0.00 74 1010.3
20260505170027 13 346 12.9 27.4 0.00 0.00 0.00 74 1010.3
20260505165559 13 355 14.5 27.4 0.00 0.00 0.00 74 1010.4
20260505165019 13 22 17.7 25.7 0.00 0.00 0.00 73 1010.4
20260505164548 13 57 11.3 24.1 0.00 0.00 0.00 73 1010.4
20260505164036 13 355 14.5 29.0 0.00 0.00 0.00 71 1010.4
20260505163525 13 360 14.5 30.6 0.00 0.00 0.00 72 1010.3
20260505163030 13 5 14.5 30.6 0.00 0.00 0.00 72 1010.3
20260505162520 13 9 16.1 30.6 0.00 0.00 0.00 72 1010.3
20260505162029 13 355 16.1 29.0 0.00 0.00 0.00 73 1010.4
20260505161519 12 18 19.3 32.2 0.00 0.00 0.00 73 1010.4
20260505161029 13 338 19.3 32.2 0.00 0.00 0.00 72 1010.4
20260505160557 13 5 14.5 33.8 0.00 0.00 0.00 72 1010.4
20260505153024 13 349 16.1 32.2 0.00 0.00 0.00 73 1010.3
20260505152532 13 337 17.7 32.2 0.00 0.00 0.00 70 1010.4
20260505152020 13 9 14.5 27.4 0.00 0.00 0.00 70 1010.4
20260505151524 14 16 14.5 24.1 0.00 0.00 0.00 70 1010.5
20260505151051 14 347 9.7 24.1 0.00 0.00 0.00 71 1010.5
20260505150518 14 360 12.9 37.0 0.00 0.00 0.00 70 1010.5
20260505140527 14 355 11.3 29.0 0.00 0.00 0.00 69 1010.6
20260505125035 14 348 12.9 30.6 0.00 0.00 0.00 69 1010.9
20260505124524 14 325 12.9 30.6 0.00 0.00 0.00 69 1010.9
20260505124029 14 333 17.7 30.6 0.00 0.00 0.00 67 1010.9
20260505123537 15 340 17.7 29.0 0.00 0.00 0.00 67 1011.0
20260505123042 15 355 14.5 29.0 0.00 0.00 0.00 68 1011.0
20260505122529 15 320 9.7 29.0 0.00 0.00 0.00 68 1010.9
20260505122057 14 34 19.3 29.0 0.00 0.00 0.00 67 1011.0
20260505121525 15 5 12.9 24.1 0.00 0.00 0.00 67 1011.0
20260505121033 15 325 11.3 29.0 0.00 0.00 0.00 68 1010.9
20260505120522 14 40 16.1 29.0 0.00 0.00 0.00 68 1010.9
20260505120041 14 34 12.9 30.6 0.00 0.00 0.00 69 1011.0
20260505115545 14 5 14.5 30.6 0.00 0.00 0.00 70 1011.1
20260505115033 14 5 16.1 25.7 0.00 0.00 0.00 70 1011.0
20260505114543 14 11 12.9 27.4 0.00 0.00 0.00 70 1011.0
20260505114029 14 349 14.5 30.6 0.00 0.00 0.00 70 1011.0
20260505113554 14 32 12.9 25.7 0.00 0.00 0.00 70 1011.2
20260505113021 14 297 16.1 25.7 0.00 0.00 0.00 69 1011.1
20260505112532 15 311 14.5 25.7 0.00 0.00 0.00 69 1011.2
20260505112039 14 36 14.5 27.4 0.00 0.00 0.00 69 1011.3
20260505111524 14 29 16.1 32.2 0.00 0.00 0.00 69 1011.2
20260505111030 15 16 20.9 32.2 0.00 0.00 0.00 66 1011.3
20260505110519 14 321 12.9 27.4 0.00 0.00 0.00 70 1011.4
20260505102024 14 17 14.5 29.0 0.00 0.00 0.00 67 1011.7
20260505101533 14 5 11.3 25.7 0.00 0.00 0.00 69 1011.7
20260505101052 14 26 14.5 25.7 0.00 0.00 0.00 68 1011.8
20260505100520 14 5 11.3 27.4 0.00 0.00 0.00 69 1011.7
20260505100042 14 26 12.9 24.1 0.00 0.00 0.00 70 1011.7
20260505095530 13 305 9.7 24.1 0.00 0.00 0.00 69 1011.8
20260505095019 14 17 9.7 24.1 0.00 0.00 0.00 70 1011.8
20260505094523 13 17 11.3 24.1 0.00 0.00 0.00 70 1011.8
20260505094052 14 21 11.3 24.1 0.00 0.00 0.00 67 1011.8
20260505093520 14 349 11.3 20.9 0.00 0.00 0.00 67 1011.7
20260505093028 14 360 9.7 17.7 0.00 0.00 0.00 67 1011.8
20260505092533 15 346 8.0 19.3 0.00 0.00 0.00 66 1011.8
20260505092021 15 17 8.0 20.9 0.00 0.00 0.00 65 1011.8
20260505091555 15 332 12.9 20.9 0.00 0.00 0.00 65 1011.9
20260505091023 14 25 8.0 22.5 0.00 0.00 0.00 66 1011.8
20260505090532 14 5 9.7 19.3 0.00 0.00 0.00 67 1011.9
20260505090051 14 31 8.0 22.5 0.00 0.00 0.00 68 1011.8
20260505085519 13 39 12.9 22.5 0.00 0.00 0.00 68 1011.8
20260505085029 13 25 9.7 20.9 0.00 0.00 0.00 69 1011.8
20260505084519 13 19 12.9 20.9 0.00 0.00 0.00 68 1011.8
20260505084024 14 347 8.0 16.1 0.00 0.00 0.00 68 1011.9
20260505083532 13 330 6.4 20.9 0.00 0.00 0.00 70 1011.9
20260505083022 12 9 9.7 22.5 0.00 0.00 0.00 71 1011.8
20260505082530 13 343 12.9 22.5 0.00 0.00 0.00 71 1011.9
20260505082019 13 5 8.0 17.7 0.00 0.00 0.00 71 1011.9
20260505081523 12 25 8.0 22.5 0.00 0.00 0.00 72 1011.9
20260505081051 12 37 14.5 24.1 0.00 0.00 0.00 71 1011.8
20260505080520 12 31 9.7 27.4 0.00 0.00 0.00 73 1011.8
20260505080041 12 12 11.3 27.4 0.00 0.00 0.00 73 1011.6
20260505075525 12 5 12.9 27.4 0.00 0.00 0.00 74 1011.8
20260505075032 12 355 9.7 27.4 0.00 0.00 0.00 74 1011.8
20260505074521 12 355 14.5 25.7 0.00 0.00 0.00 73 1011.8
20260505074054 12 28 11.3 20.9 0.00 0.00 0.00 73 1011.8
20260505073521 12 342 6.4 20.9 0.00 0.00 0.00 73 1011.8
20260505073025 12 57 11.3 19.3 0.00 0.00 0.00 73 1012.0
20260505072534 12 29 8.0 14.5 0.00 0.00 0.00 76 1012.0
20260505072023 12 24 6.4 14.5 0.00 0.00 0.00 76 1012.0
20260505071532 12 40 6.4 14.5 0.00 0.00 0.00 77 1012.1
20260505071021 12 21 6.4 14.5 0.00 0.00 0.00 77 1012.1
20260505070545 12 355 4.8 16.1 0.00 0.00 0.00 79 1012.2
20260505070026 11 18 6.4 16.1 0.00 0.00 0.00 80 1012.2
20260505065535 11 360 6.4 16.1 0.00 0.00 0.00 81 1012.3
20260505065023 11 23 4.8 16.1 0.00 0.00 0.00 81 1012.3
20260505064528 11 15 8.0 14.5 0.00 0.00 0.00 82 1012.2
20260505064017 10 42 4.8 16.1 0.00 0.00 0.00 83 1012.3
20260505063526 10 46 8.0 17.7 0.00 0.00 0.00 83 1012.4
20260505063034 10 15 4.8 17.7 0.00 0.00 0.00 83 1012.5
20260505062523 11 15 6.4 16.1 0.00 0.00 0.00 84 1012.5
20260505062026 11 23 6.4 16.1 0.00 0.00 0.00 85 1012.5
20260505061535 10 38 4.8 22.5 0.00 0.00 0.00 85 1012.5
20260505061024 10 37 6.4 22.5 0.00 0.00 0.00 86 1012.4
20260505060533 10 332 6.4 16.1 0.00 0.00 0.00 86 1012.5
20260505060036 10 5 4.8 16.1 0.00 0.00 0.00 86 1012.6
20260505055522 10 42 4.8 9.7 0.00 0.10 0.00 86 1012.5
20260505055032 10 38 3.2 9.7 0.00 0.10 0.00 86 1012.5
20260505054521 10 26 4.8 14.5 0.00 0.10 0.00 87 1012.5
20260505054030 10 33 3.2 14.5 0.00 0.10 0.00 87 1012.5
20260505053539 10 346 6.4 14.5 0.00 0.10 0.00 87 1012.5
20260505053022 10 73 3.2 14.5 0.00 0.10 0.00 87 1012.5
20260505052531 10 36 4.8 14.5 0.00 0.10 0.00 87 1012.5
20260505052039 10 16 4.8 14.5 0.00 0.10 0.00 87 1012.4
20260505051528 10 9 4.8 9.7 0.00 0.10 0.00 87 1012.4
20260505051055 10 24 4.8 12.9 0.00 0.10 0.00 87 1012.3
20260505050523 10 61 3.2 14.5 0.00 0.10 0.00 87 1012.3
20260505041532 10 10 4.8 14.5 0.00 0.10 0.00 88 1012.2
20260505041022 10 21 3.2 14.5 0.00 0.10 0.00 87 1012.1
20260505040531 10 350 4.8 12.9 0.00 0.10 0.00 87 1012.2
20260505040053 10 5 4.8 14.5 0.00 0.10 0.00 87 1012.2
20260505035540 10 5 6.4 14.5 0.00 0.10 0.00 87 1012.2
20260505035029 10 321 6.4 14.5 0.00 0.10 0.00 87 1012.1
20260505034518 10 9 6.4 12.9 0.00 0.10 0.00 87 1012.2
20260505034027 10 57 4.8 9.7 0.00 0.10 0.00 87 1012.2
20260505033532 10 346 4.8 16.1 0.00 0.10 0.00 87 1012.2
20260505033020 10 5 4.8 16.1 0.00 0.10 0.00 87 1012.2
20260505032549 10 5 6.4 14.5 0.00 0.10 0.00 87 1012.2
20260505032017 10 5 6.4 14.5 0.00 0.10 0.00 87 1012.2
20260505031523 10 360 6.4 17.7 0.00 0.10 0.00 87 1012.2
20260505031033 10 348 3.2 17.7 0.00 0.10 0.00 87 1012.2
20260505030542 10 24 6.4 17.7 0.00 0.10 0.00 87 1012.3
20260505030023 10 360 4.8 14.5 0.00 0.10 0.00 87 1012.3
20260505025549 10 329 6.4 16.1 0.00 0.10 0.00 87 1012.4
20260505025034 10 344 4.8 17.7 0.00 0.10 0.00 87 1012.4
20260505024522 10 349 4.8 17.7 0.00 0.10 0.00 87 1012.4
20260505024032 11 53 6.4 19.3 0.00 0.10 0.00 87 1012.4
20260505023520 11 342 6.4 19.3 0.00 0.10 0.00 87 1012.4
20260505023025 11 19 6.4 19.3 0.00 0.10 0.00 87 1012.5
20260505022519 11 36 6.4 19.3 0.00 0.10 0.00 86 1012.3
20260505022025 11 9 4.8 14.5 0.00 0.10 0.00 86 1012.4
20260505021534 11 13 4.8 16.1 0.00 0.10 0.00 86 1012.4
20260505021019 11 355 6.4 16.1 0.00 0.10 0.00 86 1012.4
20260505020524 11 30 6.4 17.7 0.00 0.10 0.00 86 1012.5
20260505020036 11 9 6.4 17.7 0.00 0.10 0.00 86 1012.6
20260505015543 11 350 6.4 14.5 0.00 0.10 0.00 86 1012.7
20260505015023 11 18 4.8 19.3 0.00 0.10 0.00 86 1012.8
20260505014554 11 17 4.8 19.3 0.00 0.10 0.00 86 1012.8